Satellite-Ground Cal/Val Region Overpasses Predictions

Prediction of Satellite NPP Overpassing Cal/Val Region: PacNW

Region Location: (Latitude: 10.00, Longitude: 139.50) to (Latitude: 22.70, Longitude: 165.60).

Table of predicted overpasses for the next 14.0 days since TLE Epoch: 3/31/2017
Interval Starting Time Starting Location Ending Time Ending Location
1 04/01/2017 02:32:36 ( 10.02, 161.54) 04/01/2017 02:36:12 ( 22.70, 158.52)
2 04/01/2017 15:04:30 ( 22.65, 158.77) 04/01/2017 15:08:05 ( 10.03, 155.76)
3 04/02/2017 02:14:27 ( 13.07, 165.59) 04/02/2017 02:17:11 ( 22.70, 163.28)
4 04/02/2017 03:55:05 ( 10.02, 140.92) 04/02/2017 03:56:49 ( 16.13, 139.50)
5 04/02/2017 14:45:28 ( 22.65, 163.52) 04/02/2017 14:49:03 ( 10.03, 160.52)
6 04/03/2017 03:36:03 ( 10.02, 145.68) 04/03/2017 03:39:38 ( 22.65, 142.67)
7 04/03/2017 14:29:38 ( 11.44, 165.60) 04/03/2017 14:30:02 ( 10.03, 165.28)
8 04/03/2017 16:07:57 ( 22.64, 142.90) 04/03/2017 16:11:32 ( 10.02, 139.90)
9 04/04/2017 03:17:02 ( 10.03, 150.43) 04/04/2017 03:20:37 ( 22.65, 147.43)
10 04/04/2017 15:48:54 ( 22.70, 147.67) 04/04/2017 15:52:30 ( 10.02, 144.66)
11 04/05/2017 02:58:00 ( 10.03, 155.19) 04/05/2017 03:01:35 ( 22.66, 152.18)
12 04/05/2017 15:29:53 ( 22.70, 152.43) 04/05/2017 15:33:29 ( 10.02, 149.41)
13 04/06/2017 02:38:59 ( 10.04, 159.94) 04/06/2017 02:42:34 ( 22.66, 156.94)
14 04/06/2017 15:10:51 ( 22.69, 157.18) 04/06/2017 15:14:27 ( 10.02, 154.17)
15 04/07/2017 02:19:57 ( 10.04, 164.70) 04/07/2017 02:23:32 ( 22.67, 161.69)
16 04/07/2017 14:51:50 ( 22.69, 161.94) 04/07/2017 14:55:26 ( 10.01, 158.92)
17 04/08/2017 03:42:26 ( 10.05, 144.08) 04/08/2017 03:46:01 ( 22.68, 141.07)
18 04/08/2017 14:34:06 ( 18.17, 165.59) 04/08/2017 14:36:25 ( 10.01, 163.68)
19 04/08/2017 16:14:19 ( 22.68, 141.32) 04/08/2017 16:16:26 ( 15.23, 139.51)
20 04/09/2017 03:23:24 ( 10.06, 148.83) 04/09/2017 03:26:59 ( 22.68, 145.83)
21 04/09/2017 15:55:17 ( 22.67, 146.07) 04/09/2017 15:58:52 ( 10.06, 143.07)
22 04/10/2017 03:04:22 ( 10.00, 153.60) 04/10/2017 03:07:58 ( 22.69, 150.58)
23 04/10/2017 15:36:16 ( 22.67, 150.83) 04/10/2017 15:39:51 ( 10.05, 147.83)
24 04/11/2017 02:45:20 ( 10.01, 158.36) 04/11/2017 02:48:56 ( 22.69, 155.34)
25 04/11/2017 15:17:14 ( 22.66, 155.58) 04/11/2017 15:20:49 ( 10.05, 152.58)
26 04/12/2017 02:26:19 ( 10.02, 163.11) 04/12/2017 02:29:54 ( 22.64, 160.11)
27 04/12/2017 14:58:13 ( 22.66, 160.34) 04/12/2017 15:01:48 ( 10.04, 157.34)
28 04/13/2017 02:10:02 ( 19.72, 165.59) 04/13/2017 02:10:52 ( 22.65, 164.86)
29 04/13/2017 03:48:47 ( 10.03, 142.49) 04/13/2017 03:52:21 ( 22.60, 139.50)
30 04/13/2017 14:39:11 ( 22.65, 165.09) 04/13/2017 14:42:46 ( 10.03, 162.09)
31 04/13/2017 16:20:41 ( 22.65, 139.72) 04/13/2017 16:20:55 ( 21.83, 139.51)
32 04/14/2017 03:29:46 ( 10.04, 147.24) 04/14/2017 03:33:21 ( 22.66, 144.24)


NCC Satellite Cal/Val Overpasses Prediction Service
